Stündliche Wetter Otomin

Heute, 15 April, Donnerstag

Zeit Temperatur Niederschläge Wind Luftdruck Luftfeuchtigkeit
00:00 -1°C° 0 mm 6 m/S 757 mmHg 83%
01:00 -1°C° 0 mm 6 m/S 756 mmHg 83%
02:00 -1°C° 0.1 mm 7 m/S 756 mmHg 82%
03:00 -1°C° 0.1 mm 7 m/S 756 mmHg 81%
04:00 -1°C° 0.1 mm 7 m/S 756 mmHg 80%
05:00 -1°C° 0 mm 7 m/S 756 mmHg 81%
06:00 -1°C° 0 mm 8 m/S 756 mmHg 81%
07:00 -1°C° 0 mm 8 m/S 756 mmHg 82%
08:00 0°C° 0.2 mm 8 m/S 756 mmHg 84%
09:00 0°C° 0.2 mm 8 m/S 756 mmHg 87%
10:00 0°C° 0.2 mm 8 m/S 756 mmHg 89%
11:00 0°C° 0.2 mm 8 m/S 756 mmHg 87%
12:00 0°C° 0.2 mm 8 m/S 756 mmHg 86%
13:00 +1°C° 0.2 mm 8 m/S 756 mmHg 84%
14:00 +1°C° 0.1 mm 8 m/S 755 mmHg 82%
15:00 +1°C° 0.1 mm 8 m/S 755 mmHg 80%
16:00 +2°C° 0.1 mm 7 m/S 755 mmHg 79%
17:00 +2°C° 0 mm 7 m/S 755 mmHg 79%
18:00 +2°C° 0 mm 7 m/S 755 mmHg 79%
19:00 +2°C° 0 mm 7 m/S 755 mmHg 80%
20:00 +2°C° 0 mm 7 m/S 755 mmHg 80%
21:00 +2°C° 0 mm 7 m/S 755 mmHg 81%
22:00 +1°C° 0 mm 6 m/S 755 mmHg 82%
23:00 +1°C° 0 mm 6 m/S 755 mmHg 83%

Morgen, 16 April, Freitag

Zeit Temperatur Niederschläge Wind Luftdruck Luftfeuchtigkeit
00:00 +1°C° 0 mm 6 m/S 755 mmHg 83%
01:00 +1°C° 0 mm 6 m/S 754 mmHg 84%
02:00 +1°C° 0 mm 6 m/S 754 mmHg 84%
03:00 +1°C° 0 mm 6 m/S 754 mmHg 84%
04:00 +1°C° 0 mm 6 m/S 754 mmHg 84%
05:00 +1°C° 0 mm 6 m/S 754 mmHg 84%
06:00 +1°C° 0 mm 6 m/S 754 mmHg 83%
07:00 +2°C° 0 mm 6 m/S 754 mmHg 83%
08:00 +1°C° 0 mm 6 m/S 754 mmHg 85%
09:00 +1°C° 0 mm 6 m/S 754 mmHg 87%
10:00 +1°C° 0 mm 6 m/S 754 mmHg 89%
11:00 +1°C° 0 mm 6 m/S 754 mmHg 89%
12:00 +2°C° 0 mm 6 m/S 754 mmHg 88%
13:00 +2°C° 0 mm 5 m/S 754 mmHg 87%
14:00 +2°C° 0.2 mm 5 m/S 754 mmHg 89%
15:00 +2°C° 0.2 mm 5 m/S 754 mmHg 91%
16:00 +2°C° 0.2 mm 5 m/S 754 mmHg 93%
17:00 +3°C° 0.3 mm 4 m/S 754 mmHg 94%
18:00 +3°C° 0.3 mm 4 m/S 754 mmHg 96%
19:00 +1°C° 0.3 mm 4 m/S 754 mmHg 97%
20:00 +3°C° 0 mm 3 m/S 754 mmHg 97%
21:00 +3°C° 0 mm 3 m/S 754 mmHg 97%
22:00 +3°C° 0 mm 3 m/S 754 mmHg 98%
23:00 +3°C° 0 mm 3 m/S 754 mmHg 98%

übermorgen, 17 April, Samstag

Zeit Temperatur Niederschläge Wind Luftdruck Luftfeuchtigkeit
00:00 +3°C° 0 mm 3 m/S 754 mmHg 98%
01:00 +3°C° 0 mm 3 m/S 754 mmHg 98%
02:00 +4°C° 0 mm 3 m/S 754 mmHg 97%
03:00 +4°C° 0 mm 3 m/S 754 mmHg 97%
04:00 +4°C° 0 mm 3 m/S 754 mmHg 97%
05:00 +4°C° 0 mm 4 m/S 754 mmHg 97%
06:00 +4°C° 0 mm 4 m/S 754 mmHg 97%
07:00 +5°C° 0 mm 4 m/S 754 mmHg 96%
08:00 +5°C° 0 mm 4 m/S 754 mmHg 96%
09:00 +5°C° 0 mm 4 m/S 754 mmHg 95%
10:00 +5°C° 0 mm 4 m/S 754 mmHg 95%
11:00 +7°C° 0 mm 4 m/S 754 mmHg 90%
12:00 +8°C° 0 mm 4 m/S 754 mmHg 85%
13:00 +10°C° 0 mm 4 m/S 754 mmHg 81%
14:00 +10°C° 0.1 mm 4 m/S 754 mmHg 82%
15:00 +10°C° 0.1 mm 4 m/S 754 mmHg 84%
16:00 +10°C° 0.1 mm 4 m/S 754 mmHg 85%
17:00 +8°C° 0.1 mm 4 m/S 755 mmHg 88%
18:00 +8°C° 0.1 mm 3 m/S 755 mmHg 91%
19:00 +7°C° 0.1 mm 3 m/S 755 mmHg 95%
20:00 +7°C° 0 mm 2 m/S 755 mmHg 95%
21:00 +6°C° 0 mm 2 m/S 755 mmHg 95%
22:00 +6°C° 0 mm 2 m/S 755 mmHg 94%
23:00 +6°C° 0 mm 2 m/S 755 mmHg 95%

18 April, Sonntag

Zeit Temperatur Niederschläge Wind Luftdruck Luftfeuchtigkeit
00:00 +6°C° 0 mm 2 m/S 755 mmHg 95%
01:00 +6°C° 0 mm 2 m/S 755 mmHg 96%
02:00 +6°C° 0.2 mm 2 m/S 754 mmHg 96%
03:00 +5°C° 0.2 mm 3 m/S 754 mmHg 97%
04:00 +5°C° 0.2 mm 3 m/S 754 mmHg 98%
05:00 +7°C° 0.2 mm 3 m/S 754 mmHg 97%
06:00 +7°C° 0.2 mm 2 m/S 754 mmHg 97%
07:00 +7°C° 0.2 mm 2 m/S 754 mmHg 96%
08:00 +8°C° 0.2 mm 2 m/S 754 mmHg 94%
09:00 +8°C° 0.2 mm 2 m/S 754 mmHg 91%
10:00 +9°C° 0.2 mm 2 m/S 754 mmHg 89%
11:00 +9°C° 0.3 mm 2 m/S 754 mmHg 87%
12:00 +9°C° 0.3 mm 3 m/S 754 mmHg 85%
13:00 +10°C° 0.3 mm 3 m/S 754 mmHg 83%
14:00 +10°C° 0.1 mm 3 m/S 754 mmHg 80%
15:00 +10°C° 0.1 mm 3 m/S 754 mmHg 78%
16:00 +10°C° 0.1 mm 3 m/S 754 mmHg 75%
17:00 +9°C° 0 mm 2 m/S 754 mmHg 78%
18:00 +9°C° 0 mm 2 m/S 754 mmHg 80%
19:00 +8°C° 0 mm 2 m/S 754 mmHg 83%
20:00 +8°C° 0 mm 2 m/S 754 mmHg 83%
21:00 +7°C° 0 mm 2 m/S 754 mmHg 83%
22:00 +7°C° 0 mm 2 m/S 755 mmHg 84%
23:00 +8°C° 0 mm 1 m/S 754 mmHg 84%

19 April, Montag

Zeit Temperatur Niederschläge Wind Luftdruck Luftfeuchtigkeit
00:00 +8°C° 0 mm 1 m/S 754 mmHg 84%
01:00 +7°C° 0 mm 1 m/S 754 mmHg 84%
02:00 +7°C° 0 mm 1 m/S 754 mmHg 84%
03:00 +7°C° 0 mm 1 m/S 754 mmHg 84%
04:00 +6°C° 0 mm 2 m/S 754 mmHg 84%
05:00 +7°C° 0 mm 2 m/S 754 mmHg 82%
06:00 +7°C° 0 mm 2 m/S 754 mmHg 80%
07:00 +8°C° 0 mm 2 m/S 754 mmHg 78%
08:00 +9°C° 0 mm 3 m/S 754 mmHg 73%
09:00 +10°C° 0 mm 3 m/S 754 mmHg 67%
10:00 +11°C° 0 mm 4 m/S 753 mmHg 62%
11:00 +12°C° 0 mm 4 m/S 753 mmHg 61%
12:00 +12°C° 0 mm 4 m/S 753 mmHg 60%
13:00 +12°C° 0 mm 4 m/S 752 mmHg 60%
14:00 +12°C° 0 mm 4 m/S 752 mmHg 63%
15:00 +10°C° 0 mm 5 m/S 752 mmHg 66%
16:00 +10°C° 0 mm 5 m/S 752 mmHg 68%
17:00 +10°C° 0 mm 4 m/S 751 mmHg 72%
18:00 +8°C° 0 mm 4 m/S 751 mmHg 75%
19:00 +7°C° 0 mm 4 m/S 751 mmHg 78%
20:00 +8°C° 0 mm 3 m/S 751 mmHg 80%
21:00 +7°C° 0 mm 3 m/S 750 mmHg 82%
22:00 +7°C° 0 mm 3 m/S 750 mmHg 85%
23:00 +7°C° 0 mm 3 m/S 749 mmHg 87%

20 April, Dienstag

Zeit Temperatur Niederschläge Wind Luftdruck Luftfeuchtigkeit
00:00 +7°C° 0 mm 2 m/S 749 mmHg 89%
01:00 +6°C° 0 mm 2 m/S 749 mmHg 91%
02:00 +6°C° 0 mm 2 m/S 748 mmHg 92%
03:00 +5°C° 0 mm 3 m/S 748 mmHg 94%
04:00 +5°C° 0 mm 3 m/S 748 mmHg 95%
05:00 +7°C° 0 mm 3 m/S 748 mmHg 94%
06:00 +7°C° 0 mm 3 m/S 747 mmHg 92%
07:00 +7°C° 0 mm 4 m/S 747 mmHg 90%
08:00 +7°C° 0 mm 4 m/S 747 mmHg 86%
09:00 +8°C° 0 mm 5 m/S 747 mmHg 83%
10:00 +8°C° 0 mm 5 m/S 746 mmHg 79%
11:00 +8°C° 0 mm 5 m/S 746 mmHg 81%
12:00 +8°C° 0 mm 5 m/S 746 mmHg 83%
13:00 +7°C° 0 mm 4 m/S 746 mmHg 84%
14:00 +7°C° 0 mm 4 m/S 745 mmHg 82%
15:00 +8°C° 0 mm 4 m/S 745 mmHg 80%
16:00 +8°C° 0 mm 4 m/S 745 mmHg 78%
17:00 +7°C° 0.1 mm 4 m/S 745 mmHg 81%
18:00 +7°C° 0.1 mm 4 m/S 744 mmHg 84%
19:00 +6°C° 0.1 mm 4 m/S 744 mmHg 87%
20:00 +6°C° 0 mm 4 m/S 744 mmHg 87%
21:00 +6°C° 0 mm 4 m/S 743 mmHg 88%
22:00 +7°C° 0 mm 3 m/S 743 mmHg 88%
23:00 +5°C° 0 mm 4 m/S 743 mmHg 88%
Mehr zeigen

Wir brauchen deine Erlaubnis

Meteoprog und unser Service Anbieter werden persönliche Daten aufbewahren, so wie Cookies, Geräte Bezeichnung oder ähnliche Technologien von deinem Gerät und Prozess, so wie Persönliche Daten Inhalte und Werbungen, genauso wie social Media und den Verkehr zu analysieren.

  • Aufbewahrung und/oder Zugang zu deiner Geräte Informationen.

    Cookies, Geräte Bezeichnung oder andere Informationen, können aufbewahrt oder Zugang zu deinem Gerät erhalten, für den Grund, der oben angegeben wird.

  • Personalisierte Werbung und Inhalte, Messungen, Einblick in das Publikum und Produkt Entwicklung.

    Werbungen und Inhalte können personalisiert werden, basierend auf ein Profil. Mehr Daten können besser personalisierte Werbungen und Inhalte hinzufügen. Werbung und Inhalte können gezeigt und gemessen werden. Einblicke über das Publikum, welche die Werbung gesehen haben und den Inhalt, können abgeleitet werden. So wie Daten können genutzt werden, um es zu verbessern oder die Benutzer Erfahrung zu verbessern das System und die Software.

Wenn du “Ich stimme zu” klickst, erlaubst du uns, die Cookies zu benutzen die Geräte Bezeichnung, den Web oder ähnliche Technologien zu benutzen. Deine Settings, können in deinem Gerät bei deinem Browser geändert werden.

Für den bestimmten Zweck, berechtigten Interessen beruhen darauf, mehr als auf den Inhalt. Du kannst mehr darüber in unseren Privaten und Cookie Politik lesen.